Location: Auckland
(36.8670°S, 174.7670°E)
Time: 02:30:09
(UTC+12:00)

NOSS 2-1 (E) - Pass Details

Date: 26 April 2019
Orbit: 471 x 1733 km, 63.3° (Epoch: 14 May)

Event Time Altitude Azimuth Distance (km) Brightness Sun altitude
Rises 18:48:21 0° 249° (WSW) 5,025 9.4 -13.9°
Reaches altitude 10° 18:54:16 10° 225° (SW) 3,940 8.2 -15.0°
Maximum altitude 18:58:41 13° 198° (SSW) 3,534 7.6 -15.9°
Drops below altitude 10° 19:02:49 10° 172° (S) 3,631 7.3 -16.7°
Enters shadow 19:07:22 - 148° (SSE) 4,252 7.5 -17.6°
